Hourly Weather Durres

Today, 11 July, Saturday

Time Temperature Precipitation Wind Pressure Humidity
00:00 +25°C° 0 mm 1 mps 759 mmHg 61%
01:00 +23°C° 0 mm 0 mps 759 mmHg 61%
02:00 +24°C° 0 mm 1 mps 759 mmHg 62%
03:00 +24°C° 0 mm 1 mps 759 mmHg 62%
04:00 +24°C° 0 mm 1 mps 759 mmHg 63%
05:00 +26°C° 0 mm 1 mps 759 mmHg 58%
06:00 +28°C° 0 mm 1 mps 759 mmHg 53%
07:00 +29°C° 0 mm 1 mps 759 mmHg 47%
08:00 +31°C° 0 mm 1 mps 759 mmHg 44%
09:00 +33°C° 0 mm 1 mps 759 mmHg 40%
10:00 +35°C° 0 mm 2 mps 759 mmHg 36%
11:00 +36°C° 0 mm 2 mps 759 mmHg 34%
12:00 +36°C° 0 mm 3 mps 758 mmHg 33%
13:00 +36°C° 0 mm 4 mps 758 mmHg 31%
14:00 +36°C° 0 mm 4 mps 758 mmHg 32%
15:00 +35°C° 0 mm 4 mps 758 mmHg 33%
16:00 +35°C° 0 mm 4 mps 758 mmHg 34%
17:00 +33°C° 0 mm 3 mps 758 mmHg 39%
18:00 +30°C° 0 mm 3 mps 758 mmHg 44%
19:00 +28°C° 0 mm 2 mps 758 mmHg 49%
20:00 +27°C° 0 mm 1 mps 758 mmHg 51%
21:00 +26°C° 0 mm 1 mps 758 mmHg 53%
22:00 +23°C° 0 mm 0 mps 758 mmHg 56%
23:00 +25°C° 0 mm 1 mps 758 mmHg 57%

Tomorrow, 12 July, Sunday

Time Temperature Precipitation Wind Pressure Humidity
00:00 +24°C° 0 mm 1 mps 758 mmHg 58%
01:00 +24°C° 0 mm 2 mps 758 mmHg 60%
02:00 +24°C° 0 mm 2 mps 758 mmHg 60%
03:00 +23°C° 0 mm 2 mps 758 mmHg 60%
04:00 +23°C° 0 mm 2 mps 758 mmHg 60%
05:00 +25°C° 0 mm 2 mps 758 mmHg 55%
06:00 +27°C° 0 mm 2 mps 758 mmHg 49%
07:00 +29°C° 0 mm 2 mps 759 mmHg 44%
08:00 +31°C° 0 mm 2 mps 759 mmHg 40%
09:00 +34°C° 0 mm 3 mps 759 mmHg 36%
10:00 +36°C° 0 mm 3 mps 759 mmHg 32%
11:00 +36°C° 0 mm 4 mps 759 mmHg 33%
12:00 +37°C° 0 mm 5 mps 759 mmHg 33%
13:00 +38°C° 0 mm 6 mps 759 mmHg 34%
14:00 +36°C° 0 mm 7 mps 758 mmHg 36%
15:00 +36°C° 0 mm 7 mps 758 mmHg 39%
16:00 +35°C° 0 mm 8 mps 758 mmHg 42%
17:00 +33°C° 0 mm 8 mps 758 mmHg 47%
18:00 +31°C° 0 mm 8 mps 759 mmHg 53%
19:00 +29°C° 0 mm 8 mps 759 mmHg 59%
20:00 +28°C° 0 mm 7 mps 759 mmHg 64%
21:00 +26°C° 0 mm 6 mps 759 mmHg 68%
22:00 +24°C° 0 mm 6 mps 760 mmHg 73%
23:00 +25°C° 0 mm 5 mps 760 mmHg 74%

Day after tomorrow, 13 July, Monday

Time Temperature Precipitation Wind Pressure Humidity
00:00 +23°C° 0 mm 5 mps 759 mmHg 75%
01:00 +23°C° 0 mm 5 mps 759 mmHg 76%
02:00 +22°C° 0 mm 5 mps 759 mmHg 76%
03:00 +22°C° 0 mm 5 mps 759 mmHg 75%
04:00 +22°C° 0 mm 6 mps 759 mmHg 75%
05:00 +23°C° 0 mm 6 mps 759 mmHg 67%
06:00 +26°C° 0 mm 6 mps 759 mmHg 60%
07:00 +27°C° 0 mm 7 mps 759 mmHg 52%
08:00 +29°C° 0 mm 7 mps 759 mmHg 48%
09:00 +32°C° 0 mm 7 mps 759 mmHg 43%
10:00 +34°C° 0 mm 7 mps 759 mmHg 39%
11:00 +34°C° 0 mm 8 mps 759 mmHg 36%
12:00 +35°C° 0 mm 8 mps 759 mmHg 34%
13:00 +37°C° 0 mm 9 mps 758 mmHg 31%
14:00 +35°C° 0 mm 9 mps 758 mmHg 32%
15:00 +36°C° 0 mm 10 mps 758 mmHg 32%
16:00 +36°C° 0 mm 10 mps 757 mmHg 32%
17:00 +33°C° 0 mm 10 mps 758 mmHg 37%
18:00 +31°C° 0 mm 10 mps 758 mmHg 42%
19:00 +28°C° 0 mm 9 mps 758 mmHg 47%
20:00 +27°C° 0 mm 8 mps 758 mmHg 49%
21:00 +26°C° 0 mm 7 mps 758 mmHg 51%
22:00 +23°C° 0 mm 6 mps 758 mmHg 52%
23:00 +23°C° 0 mm 6 mps 758 mmHg 51%

14 July, Tuesday

Time Temperature Precipitation Wind Pressure Humidity
00:00 +22°C° 0 mm 6 mps 758 mmHg 49%
01:00 +21°C° 0 mm 5 mps 758 mmHg 47%
02:00 +21°C° 0 mm 6 mps 758 mmHg 47%
03:00 +21°C° 0 mm 6 mps 758 mmHg 47%
04:00 +20°C° 0 mm 6 mps 758 mmHg 46%
05:00 +22°C° 0 mm 5 mps 758 mmHg 43%
06:00 +25°C° 0 mm 4 mps 758 mmHg 40%
07:00 +27°C° 0 mm 4 mps 758 mmHg 36%
08:00 +29°C° 0 mm 4 mps 758 mmHg 34%
09:00 +30°C° 0 mm 3 mps 758 mmHg 32%
10:00 +33°C° 0 mm 3 mps 759 mmHg 29%
11:00 +34°C° 0 mm 4 mps 758 mmHg 29%
12:00 +34°C° 0 mm 4 mps 758 mmHg 29%
13:00 +35°C° 0 mm 4 mps 758 mmHg 29%
14:00 +34°C° 0 mm 4 mps 758 mmHg 31%
15:00 +33°C° 0 mm 5 mps 758 mmHg 33%
16:00 +33°C° 0 mm 5 mps 758 mmHg 36%
17:00 +30°C° 0 mm 5 mps 758 mmHg 41%
18:00 +28°C° 0 mm 4 mps 758 mmHg 46%
19:00 +26°C° 0 mm 4 mps 758 mmHg 51%
20:00 +25°C° 0 mm 3 mps 758 mmHg 55%
21:00 +24°C° 0 mm 3 mps 759 mmHg 59%
22:00 +23°C° 0 mm 2 mps 759 mmHg 63%
23:00 +23°C° 0 mm 2 mps 759 mmHg 63%

15 July, Wednesday

Time Temperature Precipitation Wind Pressure Humidity
00:00 +21°C° 0 mm 2 mps 759 mmHg 63%
01:00 +21°C° 0 mm 2 mps 759 mmHg 63%
02:00 +21°C° 0 mm 2 mps 759 mmHg 65%
03:00 +21°C° 0 mm 2 mps 759 mmHg 66%
04:00 +20°C° 0 mm 2 mps 759 mmHg 67%
05:00 +23°C° 0 mm 2 mps 759 mmHg 60%
06:00 +25°C° 0 mm 2 mps 759 mmHg 54%
07:00 +27°C° 0 mm 1 mps 759 mmHg 47%
08:00 +29°C° 0 mm 1 mps 759 mmHg 40%
09:00 +31°C° 0 mm 2 mps 759 mmHg 33%
10:00 +34°C° 0 mm 2 mps 759 mmHg 26%
11:00 +34°C° 0 mm 3 mps 759 mmHg 25%
12:00 +35°C° 0 mm 3 mps 759 mmHg 24%
13:00 +35°C° 0 mm 4 mps 759 mmHg 23%
14:00 +34°C° 0 mm 4 mps 759 mmHg 25%
15:00 +34°C° 0 mm 4 mps 759 mmHg 27%
16:00 +33°C° 0 mm 4 mps 759 mmHg 28%
17:00 +30°C° 0 mm 3 mps 759 mmHg 34%
18:00 +28°C° 0 mm 3 mps 759 mmHg 39%
19:00 +26°C° 0 mm 2 mps 759 mmHg 45%
20:00 +25°C° 0 mm 2 mps 759 mmHg 47%
21:00 +24°C° 0 mm 2 mps 760 mmHg 49%
22:00 +23°C° 0 mm 1 mps 760 mmHg 52%
23:00 +23°C° 0 mm 2 mps 760 mmHg 53%

16 July, Thursday

Time Temperature Precipitation Wind Pressure Humidity
00:00 +23°C° 0 mm 2 mps 760 mmHg 53%
01:00 +21°C° 0 mm 2 mps 760 mmHg 54%
02:00 +21°C° 0 mm 2 mps 760 mmHg 54%
03:00 +20°C° 0 mm 2 mps 760 mmHg 54%
04:00 +20°C° 0 mm 2 mps 759 mmHg 54%
05:00 +23°C° 0 mm 2 mps 759 mmHg 48%
06:00 +26°C° 0 mm 1 mps 759 mmHg 42%
07:00 +28°C° 0 mm 1 mps 759 mmHg 36%
08:00 +29°C° 0 mm 1 mps 759 mmHg 32%
09:00 +31°C° 0 mm 2 mps 759 mmHg 28%
10:00 +34°C° 0 mm 2 mps 759 mmHg 24%
11:00 +34°C° 0 mm 3 mps 759 mmHg 24%
12:00 +35°C° 0 mm 4 mps 759 mmHg 25%
13:00 +35°C° 0 mm 5 mps 759 mmHg 25%
14:00 +35°C° 0 mm 5 mps 758 mmHg 28%
15:00 +34°C° 0 mm 5 mps 758 mmHg 31%
16:00 +33°C° 0 mm 5 mps 758 mmHg 34%
17:00 +30°C° 0 mm 5 mps 758 mmHg 41%
18:00 +28°C° 0 mm 4 mps 758 mmHg 48%
19:00 +26°C° 0 mm 3 mps 758 mmHg 54%
20:00 +25°C° 0 mm 3 mps 758 mmHg 58%
21:00 +24°C° 0 mm 2 mps 758 mmHg 62%
22:00 +23°C° 0 mm 2 mps 758 mmHg 65%
23:00 +23°C° 0 mm 2 mps 758 mmHg 65%
Show more